CW0630 Weather Reports


Display with metric or nautical units.
time (UTC)temp
F
wind
direction
speed
MPH
gust
MPH
rain 1hr
in
rain 24hr
in
rain mn
in
humidity
%
barometer
mb
20171021121008 49 297 0.0 0.0 0.00 0.00 0.00 96 1027.5
20171021120516 49 297 0.0 0.0 0.00 0.00 0.00 96 1027.4
20171021115956 49 297 0.0 0.0 0.00 0.00 0.00 96 1027.2
20171021115503 49 297 0.0 0.0 0.00 0.00 0.00 96 1027.1
20171021115001 48 297 0.0 0.0 0.00 0.00 0.00 96 1027.0
20171021114506 49 297 0.0 0.0 0.00 0.00 0.00 96 1027.0
20171021114008 49 297 0.0 0.0 0.00 0.00 0.00 96 1027.1
20171021113511 49 297 0.0 0.0 0.00 0.00 0.00 96 1027.0
20171021113013 49 297 0.0 0.0 0.00 0.00 0.00 95 1026.9
20171021112501 49 297 0.0 2.0 0.00 0.00 0.00 96 1026.9
20171021111957 49 290 0.0 2.0 0.00 0.00 0.00 96 1026.9
20171021111502 49 335 1.0 2.0 0.00 0.00 0.00 96 1026.8
20171021111007 49 352 0.0 2.0 0.00 0.00 0.00 96 1026.7
20171021110511 49 343 0.0 2.0 0.00 0.00 0.00 96 1026.7
20171021110013 50 345 1.0 3.0 0.00 0.00 0.00 96 1026.6
20171021105500 50 312 1.0 2.0 0.00 0.00 0.00 96 1026.5
20171021104959 50 321 1.0 2.0 0.00 0.00 0.00 96 1026.4
20171021104505 50 331 1.0 2.0 0.00 0.00 0.00 96 1026.4
20171021104006 50 297 0.0 1.0 0.00 0.00 0.00 96 1026.3
20171021103511 50 320 0.0 0.0 0.00 0.00 0.00 96 1026.2
20171021103013 50 320 0.0 1.0 0.00 0.00 0.00 96 1026.2
20171021102459 50 320 0.0 1.0 0.00 0.00 0.00 96 1026.2
20171021101957 50 320 1.0 2.0 0.00 0.00 0.00 96 1026.1
20171021101507 50 320 1.0 2.0 0.00 0.00 0.00 96 1026.1
20171021101006 50 357 1.0 2.0 0.00 0.00 0.00 96 1026.1
20171021100510 50 357 0.0 2.0 0.00 0.00 0.00 96 1026.0
20171021100012 50 357 1.0 1.0 0.00 0.00 0.00 96 1026.1
20171021095458 50 357 0.0 1.0 0.00 0.00 0.00 96 1026.0
20171021094956 49 357 0.0 0.0 0.00 0.00 0.00 95 1026.0
20171021094503 49 357 0.0 0.0 0.00 0.00 0.00 95 1026.0
20171021094005 49 357 0.0 1.0 0.00 0.00 0.00 95 1025.9
20171021093509 50 357 0.0 1.0 0.00 0.00 0.00 95 1025.9
20171021093008 49 357 0.0 1.0 0.00 0.00 0.00 95 1025.7
20171021092516 49 357 0.0 0.0 0.00 0.00 0.00 95 1025.7
20171021091958 49 357 0.0 1.0 0.00 0.00 0.00 95 1025.7
20171021091504 50 357 0.0 1.0 0.00 0.00 0.00 95 1025.7
20171021091007 50 357 0.0 1.0 0.00 0.00 0.00 95 1025.7
20171021090510 50 357 0.0 1.0 0.00 0.00 0.00 95 1025.7
20171021090013 50 357 0.0 0.0 0.00 0.00 0.00 95 1025.7
20171021085459 50 357 0.0 0.0 0.00 0.00 0.00 95 1025.5
20171021084956 50 357 0.0 0.0 0.00 0.00 0.00 95 1025.5
20171021084504 50 357 0.0 0.0 0.00 0.00 0.00 95 1025.5
20171021084007 50 357 0.0 0.0 0.00 0.00 0.00 95 1025.4
20171021083512 50 357 0.0 0.0 0.00 0.00 0.00 95 1025.4
20171021083014 50 357 0.0 0.0 0.00 0.00 0.00 95 1025.3
20171021082505 50 357 0.0 0.0 0.00 0.00 0.00 95 1025.3
20171021082003 51 357 0.0 0.0 0.00 0.00 0.00 95 1025.3
20171021081508 51 357 0.0 0.0 0.00 0.00 0.00 95 1025.3
20171021081010 51 357 0.0 0.0 0.00 0.00 0.00 95 1025.3
20171021080515 51 357 0.0 0.0 0.00 0.00 0.00 95 1025.3
20171021080016 51 357 0.0 0.0 0.00 0.00 0.00 95 1025.3
20171021075503 51 357 0.0 0.0 0.00 0.00 0.00 95 1025.2
20171021075003 51 357 0.0 0.0 0.00 0.00 0.00 95 1025.2
20171021074510 51 357 0.0 0.0 0.00 0.00 0.00 95 1025.1
20171021074011 51 357 0.0 0.0 0.00 0.00 0.00 95 1025.1
20171021073515 51 357 0.0 0.0 0.00 0.00 0.00 95 1025.2
20171021073000 51 357 0.0 0.0 0.00 0.00 0.00 95 1025.3
20171021072505 51 357 0.0 0.0 0.00 0.00 0.00 95 1025.3
20171021072001 51 357 0.0 0.0 0.00 0.00 0.00 94 1025.3
20171021071507 51 357 0.0 0.0 0.00 0.00 0.00 95 1025.3
20171021071010 51 357 0.0 0.0 0.00 0.00 0.00 95 1025.4
20171021070515 51 357 0.0 0.0 0.00 0.00 0.00 94 1025.4
20171021070001 51 357 0.0 0.0 0.00 0.00 0.00 94 1025.5
20171021065509 52 357 0.0 0.0 0.00 0.00 0.00 94 1025.5
20171021065006 52 357 0.0 0.0 0.00 0.00 0.00 94 1025.5
20171021064512 52 357 0.0 0.0 0.00 0.00 0.00 95 1025.5
20171021064012 52 357 0.0 0.0 0.00 0.00 0.00 94 1025.4
20171021063457 52 357 0.0 0.0 0.00 0.00 0.00 94 1025.4
20171021063014 52 357 0.0 0.0 0.00 0.00 0.00 94 1025.4
20171021062504 52 357 0.0 0.0 0.00 0.00 0.00 94 1025.5
20171021062012 52 357 0.0 0.0 0.00 0.00 0.00 94 1025.4
20171021061503 52 357 0.0 0.0 0.00 0.00 0.00 94 1025.4
20171021061004 52 357 0.0 0.0 0.00 0.00 0.00 94 1025.4
20171021060509 53 357 0.0 0.0 0.00 0.00 0.00 94 1025.5
20171021060010 53 357 0.0 0.0 0.00 0.00 0.00 94 1025.5
20171021055457 53 357 0.0 0.0 0.00 0.00 0.00 94 1025.4
20171021054956 53 357 0.0 0.0 0.00 0.00 0.00 94 1025.4
20171021054501 53 357 0.0 0.0 0.00 0.00 0.00 94 1025.4
20171021054001 53 357 0.0 0.0 0.00 0.00 0.00 94 1025.3
20171021053505 53 357 0.0 0.0 0.00 0.00 0.00 94 1025.3
20171021053007 53 357 0.0 0.0 0.00 0.00 0.00 93 1025.4
20171021052458 53 357 0.0 0.0 0.00 0.00 0.00 94 1025.4
20171021052016 53 357 0.0 0.0 0.00 0.00 0.00 93 1025.4
20171021051502 53 357 0.0 0.0 0.00 0.00 0.00 93 1025.4
20171021051003 54 357 0.0 0.0 0.00 0.00 0.00 93 1025.4
20171021050507 54 357 0.0 0.0 0.00 0.00 0.00 93 1025.4
20171021050010 54 357 0.0 0.0 0.00 0.00 0.00 93 1025.4
20171021045457 54 357 0.0 0.0 0.00 0.00 0.00 93 1025.4
20171021045016 54 357 0.0 0.0 0.00 0.00 0.00 93 1025.4
20171021044501 54 357 0.0 0.0 0.00 0.00 0.00 93 1025.4
20171021044005 54 357 0.0 0.0 0.00 0.00 0.00 93 1025.3
20171021043508 54 357 0.0 0.0 0.00 0.00 0.00 92 1025.3
20171021043010 54 357 0.0 0.0 0.00 0.00 0.00 92 1025.3
20171021042500 54 357 0.0 0.0 0.00 0.00 0.00 91 1025.3
20171021042017 54 357 0.0 0.0 0.00 0.00 0.00 91 1025.3
20171021041501 54 357 0.0 0.0 0.00 0.00 0.00 91 1025.2
20171021041001 55 357 0.0 0.0 0.00 0.00 0.00 91 1025.2
20171021040502 55 357 0.0 0.0 0.00 0.00 0.00 91 1025.1
20171021040001 55 357 0.0 0.0 0.00 0.00 0.00 90 1025.2
20171021035506 55 357 0.0 0.0 0.00 0.00 0.00 90 1025.1
20171021035002 55 357 0.0 0.0 0.00 0.00 0.00 90 1025.0
20171021034507 55 357 0.0 0.0 0.00 0.00 0.00 91 1025.0
20171021034009 55 357 0.0 0.0 0.00 0.00 0.00 91 1025.1
20171021033510 56 357 0.0 0.0 0.00 0.00 0.00 90 1025.1
20171021033009 56 357 0.0 0.0 0.00 0.00 0.00 90 1025.1
20171021032457 56 357 0.0 0.0 0.00 0.00 0.00 90 1025.0
20171021032016 56 357 0.0 0.0 0.00 0.00 0.00 90 1025.1
20171021031500 56 357 0.0 0.0 0.00 0.00 0.00 90 1025.0
20171021030958 56 357 0.0 0.0 0.00 0.00 0.00 90 1025.0
20171021030500 56 357 0.0 0.0 0.00 0.00 0.00 90 1024.8
20171021025958 56 357 0.0 0.0 0.00 0.00 0.00 89 1024.8
20171021025501 56 357 0.0 0.0 0.00 0.00 0.00 89 1024.8
20171021024958 56 357 0.0 0.0 0.00 0.00 0.00 89 1024.8
20171021024502 57 357 0.0 0.0 0.00 0.00 0.00 89 1024.7
20171021024001 57 357 0.0 0.0 0.00 0.00 0.00 88 1024.6
20171021023503 57 357 0.0 0.0 0.00 0.00 0.00 89 1024.6
20171021023004 57 357 0.0 0.0 0.00 0.00 0.00 88 1024.5
20171021022513 57 357 0.0 0.0 0.00 0.00 0.00 88 1024.4
20171021022010 57 357 0.0 1.0 0.00 0.00 0.00 88 1024.3
20171021021515 58 357 0.0 1.0 0.00 0.00 0.00 87 1024.4
20171021021016 58 357 0.0 0.0 0.00 0.00 0.00 88 1024.4
20171021020016 58 357 0.0 1.0 0.00 0.00 0.00 88 1024.3
20171021015501 58 357 0.0 1.0 0.00 0.00 0.00 88 1024.4
20171021014959 58 357 0.0 1.0 0.00 0.00 0.00 89 1024.4
20171021014504 58 357 0.0 0.0 0.00 0.00 0.00 88 1024.3
20171021014000 58 357 0.0 0.0 0.00 0.00 0.00 88 1024.2
20171021013502 58 357 0.0 0.0 0.00 0.00 0.00 88 1024.1
20171021013003 58 357 0.0 0.0 0.00 0.00 0.00 88 1024.2
20171021012512 59 357 0.0 0.0 0.00 0.00 0.00 88 1024.1
20171021012007 59 357 0.0 0.0 0.00 0.00 0.00 88 1024.1
20171021011511 59 357 0.0 1.0 0.00 0.00 0.00 88 1024.1
20171021011011 59 357 0.0 1.0 0.00 0.00 0.00 87 1024.1
20171021010513 59 357 0.0 1.0 0.00 0.00 0.00 87 1024.0
20171021010012 60 357 0.0 1.0 0.00 0.00 0.00 86 1024.0
20171021005458 60 357 0.0 1.0 0.00 0.00 0.00 87 1024.0
20171021005014 60 357 0.0 1.0 0.00 0.00 0.00 86 1023.9
20171021004457 60 357 0.0 1.0 0.00 0.00 0.00 86 1023.9
20171021003956 60 357 0.0 1.0 0.00 0.00 0.00 86 1023.8
20171021003458 60 357 0.0 1.0 0.00 0.00 0.00 86 1023.8
20171021002959 60 357 0.0 1.0 0.00 0.00 0.00 85 1023.8
20171021002509 61 357 0.0 1.0 0.00 0.00 0.00 85 1023.7
20171021002008 61 357 0.0 1.0 0.00 0.00 0.00 84 1023.7
20171021001515 61 357 0.0 1.0 0.00 0.00 0.00 84 1023.6
20171021001016 61 357 0.0 1.0 0.00 0.00 0.00 83 1023.6
20171021000458 62 357 0.0 2.0 0.00 0.00 0.00 83 1023.6
20171020235956 62 357 1.0 2.0 0.00 0.00 0.00 82 1023.5
20171020235502 62 357 0.0 1.0 0.00 0.00 0.00 81 1023.5
20171020235001 62 357 0.0 1.0 0.00 0.00 0.00 81 1023.5
20171020234507 62 357 0.0 0.0 0.00 0.00 0.00 80 1023.4
20171020234009 63 357 0.0 0.0 0.00 0.00 0.00 81 1023.3
20171020233515 63 357 0.0 1.0 0.00 0.00 0.00 80 1023.3
20171020232957 63 357 0.0 1.0 0.00 0.00 0.00 79 1023.2
20171020232503 63 357 0.0 0.0 0.00 0.00 0.00 79 1023.2
20171020231959 64 357 0.0 0.0 0.00 0.00 0.00 78 1023.2
20171020231505 64 357 0.0 0.0 0.00 0.00 0.00 78 1023.2
20171020231005 64 357 0.0 0.0 0.00 0.00 0.00 77 1023.2
20171020230510 65 357 0.0 0.0 0.00 0.00 0.00 76 1023.1
20171020230011 65 357 0.0 0.0 0.00 0.00 0.00 75 1023.1
20171020225516 65 357 0.0 0.0 0.00 0.00 0.00 76 1023.0
20171020225016 66 357 0.0 0.0 0.00 0.00 0.00 74 1022.9
20171020224500 66 357 0.0 0.0 0.00 0.00 0.00 74 1022.9
20171020224002 67 357 0.0 0.0 0.00 0.00 0.00 73 1022.9
20171020223507 67 357 0.0 0.0 0.00 0.00 0.00 73 1022.8
20171020223012 67 357 0.0 0.0 0.00 0.00 0.00 71 1022.8
20171020222458 67 357 0.0 0.0 0.00 0.00 0.00 70 1022.7
20171020222016 68 357 0.0 0.0 0.00 0.00 0.00 70 1022.6
20171020221502 68 357 0.0 0.0 0.00 0.00 0.00 68 1022.6
20171020221002 69 357 0.0 0.0 0.00 0.00 0.00 68 1022.6
20171020220503 69 357 0.0 1.0 0.00 0.00 0.00 67 1022.6
20171020220001 70 357 0.0 1.0 0.00 0.00 0.00 67 1022.6
20171020215507 70 357 0.0 1.0 0.00 0.00 0.00 67 1022.5
20171020215005 70 357 0.0 1.0 0.00 0.00 0.00 66 1022.6
20171020214511 71 357 0.0 1.0 0.00 0.00 0.00 65 1022.6
20171020214013 71 357 0.0 2.0 0.00 0.00 0.00 65 1022.6
20171020213459 71 357 0.0 2.0 0.00 0.00 0.00 64 1022.6
20171020212957 71 8 0.0 1.0 0.00 0.00 0.00 63 1022.6
20171020212503 72 8 0.0 1.0 0.00 0.00 0.00 63 1022.6
20171020212001 72 8 0.0 2.0 0.00 0.00 0.00 62 1022.6
20171020211505 72 8 0.0 3.0 0.00 0.00 0.00 62 1022.6
20171020211006 73 8 1.0 3.0 0.00 0.00 0.00 60 1022.5
20171020210511 73 326 0.0 2.0 0.00 0.00 0.00 61 1022.5
20171020210013 74 326 0.0 4.0 0.00 0.00 0.00 60 1022.5
20171020205458 74 326 2.0 4.0 0.00 0.00 0.00 56 1022.5
20171020204957 75 352 1.0 4.0 0.00 0.00 0.00 58 1022.5
20171020204500 75 264 1.0 3.0 0.00 0.00 0.00 54 1022.5
20171020203959 75 280 0.0 3.0 0.00 0.00 0.00 54 1022.6
20171020203504 76 280 1.0 5.0 0.00 0.00 0.00 53 1022.6
20171020203004 76 265 1.0 5.0 0.00 0.00 0.00 52 1022.5
20171020202509 76 231 1.0 8.0 0.00 0.00 0.00 54 1022.5
20171020202007 76 318 1.0 8.0 0.00 0.00 0.00 53 1022.5
20171020201513 76 25 3.0 8.0 0.00 0.00 0.00 51 1022.5
20171020201014 76 323 2.0 7.0 0.00 0.00 0.00 53 1022.5
20171020200515 76 204 1.0 9.0 0.00 0.00 0.00 51 1022.6
20171020195957 77 326 2.0 9.0 0.00 0.00 0.00 51 1022.6
20171020195503 77 27 3.0 7.0 0.00 0.00 0.00 50 1022.7
20171020195001 77 306 3.0 6.0 0.00 0.00 0.00 52 1022.6
20171020194507 77 312 1.0 4.0 0.00 0.00 0.00 52 1022.6
20171020194007 77 39 0.0 9.0 0.00 0.00 0.00 51 1022.6
20171020193512 77 301 4.0 9.0 0.00 0.00 0.00 51 1022.8
20171020193013 78 352 3.0 8.0 0.00 0.00 0.00 49 1022.8
20171020192459 78 357 3.0 9.0 0.00 0.00 0.00 50 1022.8
20171020192016 78 40 3.0 9.0 0.00 0.00 0.00 50 1022.8
20171020191502 78 20 2.0 8.0 0.00 0.00 0.00 48 1022.7
20171020190958 78 241 0.0 9.0 0.00 0.00 0.00 48 1022.8
20171020190503 78 212 2.0 9.0 0.00 0.00 0.00 51 1022.9
20171020190003 78 21 2.0 6.0 0.00 0.00 0.00 50 1022.9
20171020185507 78 161 3.0 8.0 0.00 0.00 0.00 50 1023.0
20171020185004 78 306 2.0 8.0 0.00 0.00 0.00 50 1023.1
20171020184510 78 21 3.0 11.0 0.00 0.00 0.00 50 1023.1
20171020184012 78 324 4.0 11.0 0.00 0.00 0.00 50 1023.1
20171020183459 78 357 4.0 5.0 0.00 0.00 0.00 50 1023.2
20171020183002 78 325 2.0 4.0 0.00 0.00 0.00 49 1023.2
20171020182508 78 352 1.0 8.0 0.00 0.00 0.00 52 1023.2
20171020182006 78 9 4.0 8.0 0.00 0.00 0.00 52 1023.3
20171020181511 78 320 3.0 8.0 0.00 0.00 0.00 51 1023.3
20171020181011 78 10 3.0 8.0 0.00 0.00 0.00 50 1023.4
20171020180513 78 306 4.0 8.0 0.00 0.00 0.00 50 1023.4
20171020180015 78 12 3.0 6.0 0.00 0.00 0.00 51 1023.4
20171020175500 78 27 3.0 9.0 0.00 0.00 0.00 50 1023.5
20171020175017 78 13 3.0 9.0 0.00 0.00 0.00 51 1023.6
20171020174503 78 52 5.0 11.0 0.00 0.00 0.00 50 1023.6
20171020174007 78 33 3.0 11.0 0.00 0.00 0.00 51 1023.7
20171020173511 78 253 3.0 10.0 0.00 0.00 0.00 51 1023.7
20171020173011 78 6 2.0 10.0 0.00 0.00 0.00 52 1023.8
20171020172517 78 312 3.0 10.0 0.00 0.00 0.00 52 1023.9
20171020172016 78 300 4.0 10.0 0.00 0.00 0.00 52 1023.9
20171020171459 78 341 2.0 6.0 0.00 0.00 0.00 53 1024.0
20171020171000 78 340 3.0 5.0 0.00 0.00 0.00 51 1024.1
20171020170504 77 2 3.0 6.0 0.00 0.00 0.00 52 1024.3
20171020170005 77 318 3.0 9.0 0.00 0.00 0.00 54 1024.3
20171020165511 76 299 2.0 9.0 0.00 0.00 0.00 52 1024.4
20171020165010 76 298 5.0 8.0 0.00 0.00 0.00 55 1024.5
20171020164458 76 345 2.0 9.0 0.00 0.00 0.00 55 1024.5
20171020163959 75 33 5.0 11.0 0.00 0.00 0.00 53 1024.6
20171020163501 76 352 7.0 11.0 0.00 0.00 0.00 51 1024.7
20171020163001 76 352 5.0 10.0 0.00 0.00 0.00 51 1024.7
20171020162502 76 29 5.0 10.0 0.00 0.00 0.00 52 1024.9
20171020162016 76 19 5.0 8.0 0.00 0.00 0.00 55 1024.9
20171020161502 75 336 3.0 9.0 0.00 0.00 0.00 54 1024.9
20171020161001 75 31 4.0 9.0 0.00 0.00 0.00 55 1025.0
20171020160504 75 324 3.0 9.0 0.00 0.00 0.00 55 1025.0
20171020160006 75 35 5.0 9.0 0.00 0.00 0.00 55 1025.1
20171020155512 75 2 4.0 7.0 0.00 0.00 0.00 54 1025.1
20171020155010 75 11 2.0 8.0 0.00 0.00 0.00 56 1025.2
20171020154500 75 330 2.0 8.0 0.00 0.00 0.00 59 1025.2
20171020153959 74 14 3.0 8.0 0.00 0.00 0.00 58 1025.2
20171020153504 73 29 1.0 8.0 0.00 0.00 0.00 57 1025.2
20171020153003 73 352 3.0 9.0 0.00 0.00 0.00 56 1025.3
20171020152510 73 16 5.0 9.0 0.00 0.00 0.00 56 1025.3
20171020152011 73 15 1.0 5.0 0.00 0.00 0.00 56 1025.2
20171020151515 72 29 2.0 6.0 0.00 0.00 0.00 57 1025.2
20171020151017 72 316 3.0 6.0 0.00 0.00 0.00 59 1025.3
20171020150500 72 322 2.0 5.0 0.00 0.00 0.00 58 1025.3
20171020150000 71 357 2.0 5.0 0.00 0.00 0.00 59 1025.3
20171020145505 70 8 3.0 5.0 0.00 0.00 0.00 59 1025.2
20171020145005 70 293 1.0 3.0 0.00 0.00 0.00 59 1025.3
20171020144516 70 304 1.0 3.0 0.00 0.00 0.00 60 1025.3
20171020143959 69 295 1.0 5.0 0.00 0.00 0.00 61 1025.3
20171020143503 68 6 3.0 5.0 0.00 0.00 0.00 61 1025.3
20171020143002 68 339 0.0 3.0 0.00 0.00 0.00 62 1025.3
20171020142508 67 332 1.0 3.0 0.00 0.00 0.00 62 1025.2
20171020142006 67 20 1.0 3.0 0.00 0.00 0.00 63 1025.2
20171020141511 67 15 1.0 2.0 0.00 0.00 0.00 66 1025.2
20171020141012 66 2 0.0 2.0 0.00 0.00 0.00 69 1025.3
20171020140515 65 352 1.0 2.0 0.00 0.00 0.00 71 1025.3
20171020140016 64 352 0.0 2.0 0.00 0.00 0.00 72 1025.3
20171020135502 63 337 0.0 2.0 0.00 0.00 0.00 74 1025.3
20171020135005 63 337 1.0 2.0 0.00 0.00 0.00 76 1025.2
20171020134511 62 318 0.0 2.0 0.00 0.00 0.00 79 1025.2
20171020134014 61 318 0.0 2.0 0.00 0.00 0.00 79 1025.2
20171020133514 60 352 1.0 2.0 0.00 0.00 0.00 81 1025.2
20171020133017 59 29 0.0 2.0 0.00 0.00 0.00 83 1025.2
20171020132502 58 46 0.0 1.0 0.00 0.00 0.00 83 1025.2
20171020132017 57 75 0.0 0.0 0.00 0.00 0.00 86 1025.1
20171020131502 57 75 0.0 0.0 0.00 0.00 0.00 88 1025.1
20171020131001 56 75 0.0 1.0 0.00 0.00 0.00 89 1025.0
20171020130504 54 75 0.0 1.0 0.00 0.00 0.00 90 1025.0
20171020130005 54 106 0.0 1.0 0.00 0.00 0.00 94 1025.0
20171020125512 52 97 0.0 1.0 0.00 0.00 0.00 96 1024.9
20171020125015 51 97 0.0 0.0 0.00 0.00 0.00 97 1024.8
20171020124500 51 97 0.0 0.0 0.00 0.00 0.00 97 1024.8
20171020124000 50 97 0.0 1.0 0.00 0.00 0.00 97 1024.7
20171020123505 49 80 0.0 1.0 0.00 0.00 0.00 97 1024.7
20171020123005 47 80 0.0 1.0 0.00 0.00 0.00 96 1024.7
20171020122511 47 222 0.0 0.0 0.00 0.00 0.00 96 1024.6
20171020122012 46 222 0.0 0.0 0.00 0.00 0.00 96 1024.5
20171020121517 46 222 0.0 0.0 0.00 0.00 0.00 96 1024.4